[[[{"header":{"parameterUnit":"kt","parameterCategory":2,"dx":1,"dy":1,"la1":30.253999710083008,"la2":30.299108505249023,"lo1":-89.0895004272461,"lo2":-89.04439544677734,"nx":28,"ny":28,"refTime":"2022-10-15T21:00:00:Z","depth":0,"parameterNumber":1,"parameterNumberName":"U-component_of_WINDS"},"data":[-2.0043,-2.0127,-2.0125,-2.0221,-2.0235,-2.0301,-2.0324,-2.0353,-2.0376,-2.0456,-2.0501,-2.0508,-2.0531,-2.0586,-2.0636,-2.0639,-2.0661,-2.0694,-2.0691,-2.0545,-2.0525,-2.0506,-2.0486,-2.0698,-2.0698,-2.0843,-2.0844,-2.0845,-1.994,-1.9954,-2.0004,-2.005,-2.0093,-2.006,-2.0094,-2.0133,-2.0193,-2.0222,-2.0266,-2.0336,-2.0391,-2.0403,-2.0456,-2.0497,-2.0486,-2.0512,-2.051,-2.0515,-2.0358,-2.0337,-2.0521,-2.0521,-2.0521,-2.0521,-2.0521,-2.0521,-1.9753,-1.9803,-1.9829,-1.9882,-1.9904,-1.9936,-1.9984,-1.999,-2.0039,-2.0092,-2.0079,-2.0147,-2.0176,-2.0238,-2.0258,-2.0312,-2.0282,-2.0311,-2.0318,-2.0326,-2.0336,-2.0133,-2.032,-2.032,-2.0319,-2.0319,-2.0318,0,-1.9615,-1.961,-1.9655,-1.9702,-1.974,-1.9775,-1.9807,-1.9837,-1.9823,-1.9864,-1.9923,-1.9957,-2.0025,-2.0081,-2.013,-2.0144,-2.0116,-2.0111,-2.0132,-2.014,-2.0143,-2.0145,-1.9893,-2.0106,-2.0104,-2.0103,-2.0102,-2.0101,-1.9429,-1.9486,-1.9511,-1.9544,-1.956,-1.9613,-1.9645,-1.9627,-1.9662,-1.9699,-1.9745,-1.98,-1.9844,-1.994,-1.9947,-1.9997,-1.9984,-2.0067,-1.9992,-1.9998,-1.9989,-1.9986,-1.9993,-2.0082,-2.0084,-2.0086,-2.0088,0,-1.9325,-1.9317,-1.9406,-1.9423,-1.943,-1.9492,-1.9508,-1.9557,-1.9557,-1.9626,-1.9641,-1.9641,-1.9699,-1.9692,-1.9757,-1.9752,-1.986,-1.9844,-1.985,-1.9848,-1.9922,-1.9917,-2.0161,-2.0193,-1.9971,-1.9973,-1.9974,0,-1.9163,-1.924,-1.9225,-1.9277,-1.9362,-1.9341,-1.9426,-1.9434,-1.9456,-1.951,-1.9474,-1.9526,-1.9507,-1.9559,-1.9551,-1.9637,-1.9648,-1.965,-1.9647,-1.9654,-1.9655,-1.9674,-1.9665,-1.9636,-1.9634,-1.9633,-1.9632,0,-1.9002,-1.9082,-1.9166,-1.9183,-1.9209,-1.9249,-1.9262,-1.9285,-1.9316,-1.9354,-1.9375,-1.9421,-1.9447,-1.9485,-1.9474,-1.9424,-1.9578,-1.9507,-1.958,-1.9581,-1.9615,-1.9614,-1.9831,-1.9631,-1.963,-1.963,-1.9629,0,-1.8871,-1.8908,-1.9029,-1.905,-1.9072,-1.9127,-1.917,-1.9215,-1.9243,-1.9241,-1.9271,-1.9246,-1.9317,-1.9248,-1.9348,-1.9286,-1.9314,-1.9322,-1.9327,-1.9334,-1.9257,-1.9383,-1.9588,-1.9611,-1.934,-1.9338,-1.9335,0,-1.8691,-1.8809,-1.8791,-1.8907,-1.896,-1.8916,-1.8977,-1.9001,-1.9003,-1.905,-1.9052,-1.9106,-1.9052,-1.9068,-1.9118,-1.9123,-1.9204,-1.9111,-1.9184,-1.9186,-1.918,-1.9368,-1.9401,-1.9544,-1.9304,-1.9308,-1.931,0,-1.8549,-1.8577,-1.8599,-1.8618,-1.8644,-1.8689,-1.8758,-1.8805,-1.8838,-1.8868,-1.8927,-1.9,-1.8964,-1.8989,-1.8973,-1.9026,-1.9148,-1.8979,-1.898,-1.9012,-1.9287,-1.9319,-1.9342,-1.9127,-1.913,-1.9133,-1.9285,0,-1.8357,-1.8414,-1.8471,-1.8512,-1.8544,-1.8614,-1.8603,-1.8639,-1.862,-1.8619,-1.8704,-1.8721,-1.877,-1.8793,-1.8775,-1.8896,-1.8875,-1.8835,-1.8767,-1.889,-1.894,-1.896,-1.8694,-1.8692,-1.869,-1.8689,0,0,-1.8188,-1.8268,-1.8244,-1.8309,-1.8335,-1.8286,-1.8363,-1.8382,-1.8423,-1.8443,-1.8405,-1.8511,-1.8526,-1.8631,-1.8668,-1.8687,-1.8709,-1.8665,-1.8831,-1.8847,-1.8862,-1.8915,-1.8936,-1.8686,-1.8685,-1.8684,-1.8684,0,-1.8115,-1.8128,-1.8202,-1.8221,-1.8248,-1.8243,-1.8261,-1.8279,-1.8282,-1.8363,-1.8323,-1.8372,-1.8456,-1.8479,-1.8501,-1.8652,-1.862,-1.8668,-1.8754,-1.8814,-1.8832,-1.8848,-1.8905,-1.8925,-1.8679,-1.868,-1.868,0,-1.7975,-1.7987,-1.8021,-1.8075,-1.8091,-1.8147,-1.8073,-1.8134,-1.8175,-1.8119,-1.82,-1.8208,-1.8236,-1.8335,-1.8378,-1.8345,-1.854,-1.8475,-1.8486,-1.8491,-1.8549,-1.857,-1.859,-1.8333,-1.8332,-1.8331,0,0,-1.7914,-1.7965,-1.7972,-1.8058,-1.8071,-1.8064,-1.8092,-1.8075,-1.8099,-1.811,-1.8118,-1.8145,-1.8194,-1.8226,-1.8271,-1.8381,-1.8386,-1.8433,-1.8449,-1.8462,-1.8475,-1.8536,-1.8558,-1.8327,-1.8327,-1.8326,0,0,-1.7885,-1.7896,-1.7871,-1.7969,-1.7993,-1.8006,-1.806,-1.8031,-1.8069,-1.806,-1.8035,-1.8041,-1.8132,-1.8141,-1.8084,-1.8247,-1.818,-1.8194,-1.8238,-1.8259,-1.8275,-1.8271,-1.8011,0,0,0,0,0,-1.7804,-1.7894,-1.7872,-1.7886,-1.7953,-1.8018,-1.8027,-1.8008,-1.7961,-1.8005,-1.8008,-1.7969,-1.8106,-1.8054,-1.807,-1.8134,-1.827,-1.828,-1.829,-1.8372,-1.8394,-1.8412,0,0,0,0,0,0,-1.7809,-1.7827,-1.7869,-1.7886,-1.7901,-1.8015,-1.7932,-1.7929,-1.7956,-1.7948,-1.797,-1.797,-1.7955,-1.8045,-1.8059,-1.8121,-1.8006,-1.8274,-1.8283,-1.829,-1.838,-1.8397,-1.8413,0,0,0,0,0,-1.7814,-1.7828,-1.794,-1.7884,-1.7897,-1.7893,-1.7929,-1.7926,-1.7946,-1.795,-1.7948,-1.7929,-1.7958,-1.7968,-1.8054,-1.8115,-1.7996,-1.8001,-1.828,-1.8286,-1.8292,-1.8388,0,0,0,0,0,0,-1.7817,-1.7826,-1.7942,-1.7945,-1.7848,-1.7887,-1.7892,-1.7923,-1.7946,-1.7945,-1.7907,-1.79,-1.796,-1.7968,-1.7977,-1.8114,-1.7988,-1.7993,-1.7997,-1.8285,-1.829,-1.8295,0,0,0,0,0,0,-1.7818,-1.7829,-1.7944,-1.7899,-1.7897,-1.7881,-1.7885,-1.7954,-1.7947,-1.7901,-1.7896,-1.7904,-1.7948,-1.7969,-1.7975,-1.8083,-1.7982,-1.7987,-1.7991,-1.7993,-1.8289,-1.8293,0,0,0,0,0,0,-1.7823,-1.7832,-1.7898,-1.7896,-1.7894,-1.793,-1.7941,-1.8011,-1.7907,-1.7901,-1.7898,-1.7893,-1.795,-1.7956,-1.7974,-1.808,-1.8082,-1.7982,-1.7985,-1.7988,-1.799,0,0,0,0,0,0,0,-1.7826,-1.7767,-1.7922,-1.7894,-1.7892,-1.7976,-1.7977,-1.7977,-1.7906,-1.7903,-1.7899,-1.7895,-1.7952,-1.7958,-1.7963,-1.8077,0,0,-1.7981,-1.7984,0,0,0,0,0,0,0,0,-1.7763,-1.7766,-1.7923,-1.7923,-1.7924,-1.7976,-1.7977,-1.7977,-1.7906,-1.7903,-1.7899,-1.7896,-1.7953,-1.7958,-1.7963,0,0,0,0,0,0,0,0,0,0,0,0,0,0,0,-1.7923,-1.7923,0,-1.7976,-1.7977,-1.7977,-1.7905,-1.7903,-1.79,-1.7898,-1.7955,-1.7958,-1.7962,0,0,0,0,0,0,0,0,0,0,0,0,0,0,0,0,0,0,0,0,0,0,0,0,0,0,0,0,0,0,0,0,0,0,0,0,0,0,0,0,0,0,0,0,0,0,0,0,0,0,0,0,0,0,0,0,0,0,0,0,0,0,0,0,0,0,0,0,0]}],[{"header":{"parameterUnit":"kt","parameterCategory":2,"dx":1,"dy":1,"la1":30.253999710083008,"la2":30.299108505249023,"lo1":-89.0895004272461,"lo2":-89.04439544677734,"nx":28,"ny":28,"refTime":"2022-10-15T21:00:00:Z","depth":0,"parameterNumber":2,"parameterNumberName":"V-component_of_WINDS"},"data":[2.9045,2.9025,2.9018,2.8992,2.898,2.8961,2.8951,2.8937,2.8924,2.8899,2.8883,2.8872,2.8854,2.8832,2.8813,2.8808,2.88,2.88,2.8794,2.8806,2.8807,2.8808,2.8812,2.8798,2.8798,2.8782,2.8782,2.8782,2.9055,2.9045,2.9029,2.9008,2.8994,2.899,2.8973,2.8961,2.8943,2.8926,2.891,2.8886,2.8866,2.8848,2.8826,2.8816,2.8812,2.8811,2.8811,2.8808,2.882,2.8825,2.8814,2.8814,2.8814,2.8814,2.8814,2.8814,2.9073,2.9062,2.9045,2.9027,2.9014,2.9,2.8987,2.8975,2.8958,2.8935,2.8928,2.8907,2.8888,2.8857,2.8844,2.8826,2.8826,2.8821,2.882,2.8818,2.8819,2.8843,2.8822,2.8822,2.8822,2.8822,2.8822,0,2.9083,2.9078,2.9062,2.9044,2.903,2.9014,2.8999,2.899,2.8974,2.896,2.894,2.8926,2.8899,2.8878,2.8855,2.8842,2.8835,2.8833,2.883,2.8832,2.8839,2.8835,2.8855,2.8833,2.8833,2.8833,2.8833,2.8833,2.91,2.9088,2.9066,2.9055,2.9045,2.9028,2.9016,2.9002,2.899,2.8967,2.8957,2.8936,2.8918,2.8885,2.8868,2.8847,2.8842,2.8835,2.8839,2.8843,2.8841,2.8842,2.884,2.8834,2.8834,2.8834,2.8834,0,2.911,2.9097,2.9075,2.9053,2.9048,2.9035,2.9016,2.9003,2.8991,2.8971,2.8966,2.8947,2.8926,2.891,2.8882,2.8874,2.8851,2.8848,2.8858,2.8856,2.8847,2.8848,2.8822,2.8818,2.8833,2.8833,2.8833,0,2.9119,2.9102,2.9084,2.9071,2.9052,2.9039,2.902,2.9008,2.8992,2.8976,2.8966,2.8951,2.8933,2.8915,2.8903,2.8882,2.8876,2.8868,2.8865,2.8869,2.887,2.886,2.8861,2.8859,2.8859,2.8859,2.886,0,2.9135,2.9106,2.9086,2.9077,2.9051,2.9042,2.9031,2.9012,2.8999,2.8981,2.8972,2.8951,2.894,2.8923,2.8908,2.8911,2.8881,2.8882,2.8872,2.8873,2.8865,2.8866,2.8849,2.886,2.886,2.886,2.886,0,2.9139,2.9123,2.9096,2.9074,2.9067,2.9053,2.9032,2.9017,2.8997,2.8989,2.8974,2.8965,2.8944,2.8947,2.8919,2.8927,2.8916,2.8907,2.8906,2.8902,2.8905,2.8896,2.8882,2.888,2.89,2.89,2.89,0,2.9162,2.9131,2.9119,2.9093,2.9077,2.9067,2.9051,2.9034,2.9022,2.9005,2.8991,2.8972,2.897,2.8961,2.895,2.8934,2.8923,2.8935,2.8909,2.8908,2.8914,2.8901,2.8903,2.8887,2.8905,2.8904,2.8904,0,2.9177,2.9147,2.9143,2.9132,2.9108,2.9094,2.9076,2.9054,2.9043,2.9025,2.9009,2.8981,2.8978,2.8964,2.8953,2.8942,2.893,2.894,2.8939,2.8939,2.8905,2.8907,2.8904,2.8925,2.8925,2.8924,2.8907,0,2.9186,2.9169,2.9158,2.9133,2.912,2.9102,2.9086,2.9074,2.9066,2.9053,2.9029,2.9009,2.8985,2.8978,2.8969,2.8948,2.8949,2.8946,2.8946,2.8938,2.8932,2.8929,2.8957,2.8957,2.8957,2.8957,0,0,2.921,2.9185,2.9172,2.9154,2.9142,2.9131,2.9114,2.9101,2.9073,2.9064,2.9065,2.9022,2.9005,2.8977,2.8973,2.8963,2.8957,2.8961,2.8942,2.8941,2.8939,2.8933,2.8931,2.8957,2.8957,2.8957,2.8956,0,2.921,2.9196,2.918,2.9166,2.9144,2.9132,2.9128,2.9104,2.9095,2.9071,2.9061,2.9044,2.901,2.8993,2.8981,2.8964,2.8956,2.8958,2.8955,2.8942,2.8941,2.8939,2.8933,2.8931,2.8956,2.8956,2.8956,0,2.9222,2.9205,2.9196,2.9168,2.9153,2.9135,2.9132,2.9114,2.91,2.9087,2.9063,2.905,2.9026,2.9002,2.899,2.899,2.8957,2.8964,2.8964,2.8961,2.8948,2.8946,2.8945,2.8964,2.8964,2.8964,0,0,2.9223,2.9207,2.9184,2.9166,2.9158,2.9139,2.9127,2.9118,2.9098,2.909,2.9073,2.9053,2.9032,2.9019,2.8999,2.8975,2.8968,2.8965,2.8965,2.8965,2.8963,2.8949,2.8947,2.8965,2.8965,2.8965,0,0,2.9224,2.9197,2.9193,2.917,2.9152,2.9127,2.9116,2.911,2.909,2.909,2.9072,2.9066,2.9043,2.9029,2.9037,2.8998,2.8999,2.8997,2.9008,2.9007,2.9007,2.901,2.9029,0,0,0,0,0,2.9215,2.92,2.9197,2.9191,2.9154,2.913,2.9125,2.911,2.9111,2.9103,2.9087,2.908,2.9029,2.9036,2.9029,2.902,2.897,2.8969,2.8968,2.8977,2.8976,2.8976,0,0,0,0,0,0,2.9212,2.9205,2.9197,2.9172,2.9163,2.913,2.9129,2.9124,2.9112,2.9111,2.9083,2.9079,2.9065,2.9038,2.9032,2.9024,2.9031,2.8969,2.8969,2.8968,2.8977,2.8976,2.8976,0,0,0,0,0,2.921,2.9204,2.9149,2.9172,2.9165,2.9142,2.9129,2.9125,2.9115,2.909,2.9086,2.9106,2.9065,2.9059,2.9035,2.9027,2.9035,2.9033,2.8969,2.8968,2.8968,2.8976,0,0,0,0,0,0,2.9208,2.92,2.9147,2.9145,2.9176,2.9144,2.9138,2.9126,2.9095,2.909,2.9112,2.9111,2.9065,2.906,2.9056,2.9029,2.9038,2.9036,2.9034,2.8968,2.8968,2.8967,0,0,0,0,0,0,2.9203,2.9197,2.9146,2.9152,2.915,2.9145,2.914,2.9117,2.9095,2.9118,2.9117,2.9112,2.9071,2.9061,2.9058,2.9022,2.904,2.9038,2.9037,2.9036,2.8968,2.8968,0,0,0,0,0,0,2.92,2.9196,2.9153,2.9151,2.9149,2.9116,2.9124,2.9087,2.9102,2.912,2.9103,2.9103,2.9072,2.9068,2.9059,2.9025,2.9022,2.904,2.9039,2.9038,2.9037,0,0,0,0,0,0,0,2.9198,2.9234,2.9164,2.915,2.9149,2.9119,2.9118,2.9117,2.9102,2.9102,2.9103,2.9103,2.9052,2.905,2.9048,2.9027,0,0,2.9041,2.904,0,0,0,0,0,0,0,0,2.9235,2.9234,2.9164,2.9164,2.9163,2.9118,2.9118,2.9117,2.9102,2.9102,2.9103,2.9103,2.9052,2.905,2.9048,0,0,0,0,0,0,0,0,0,0,0,0,0,0,0,2.9164,2.9164,0,2.9118,2.9118,2.9117,2.9102,2.9102,2.9102,2.9103,2.9051,2.905,2.9048,0,0,0,0,0,0,0,0,0,0,0,0,0,0,0,0,0,0,0,0,0,0,0,0,0,0,0,0,0,0,0,0,0,0,0,0,0,0,0,0,0,0,0,0,0,0,0,0,0,0,0,0,0,0,0,0,0,0,0,0,0,0,0,0,0,0,0,0,0]}]]]